Location: Hanover
(52.3667°N, 9.7167°E)
Time: 03:45:23
(UTC+02:00)

ARIANE 6 FM1 Upper Stage - Pass Details

Date: 21 September 2024
Orbit: 564 x 594 km, 62.0° (Epoch: 06 October)

Event Time Altitude Azimuth Distance (km) Brightness Sun altitude
Exits shadow 06:16:07 10° 274° (W) 1,943 4.8 -8.4°
Reaches altitude 10° 06:16:09 10° 273° (W) 1,935 4.8 -8.4°
Maximum altitude 06:18:15 13° 244° (WSW) 1,722 4.5 -8.1°
Drops below altitude 10° 06:20:21 10° 215° (SW) 1,930 5.0 -7.7°
Sets 06:23:39 0° 189° (S) 2,825 6.0 -7.3°
